Simultaneous Nadir Overpasses (SNOs) Predictions

Prediction of SNOs between METOP-A and NOAA-19 Satellite Orbit:

Table of predicted SNOs for the next 14.0 days since TLE Epoch: 1/3/2020
Index Date (METOP-A) Time (METOP-A) Lat,Lon (METOP-A) SZA (METOP-A ) Date (NOAA-19) Time (NOAA-19) Lat,Lon (NOAA-19) SZA (NOAA-19 ) Distance(km) Time Diff (sec)
1 01/11/2020 01:39:13 80.23, 168.47 102.26 01/11/2020 01:37:58 80.23, 168.55 102.26 1.57 75
2 01/11/2020 02:29:54 -80.24, -24.05 77.73 01/11/2020 02:28:53 -80.23, -24.18 77.75 2.63 61
3 01/11/2020 03:20:35 80.21, 143.01 102.23 01/11/2020 03:19:59 80.24, 142.95 102.25 2.85 36
4 01/11/2020 04:11:16 -80.23, -49.52 77.76 01/11/2020 04:10:53 -80.22, -49.45 77.77 1.73 23
5 01/11/2020 05:01:57 80.20, 117.54 102.21 01/11/2020 05:01:59 80.22, 117.67 102.23 3.40 2
6 01/11/2020 05:52:38 -80.22, -74.98 77.78 01/11/2020 05:52:54 -80.22, -75.05 77.78 1.55 16
7 01/11/2020 06:43:18 80.22, 92.38 102.22 01/11/2020 06:43:59 80.21, 92.40 102.21 1.22 41
8 01/11/2020 07:34:00 -80.21,-100.44 77.81 01/11/2020 07:34:54 -80.21,-100.33 77.80 2.24 54




NCC Satellite Simultaneous Nadir Overpasses (SNOs) Prediction Service
